| time (UTC) | temp F | wind direction | speed knots | gust knots | rain 1hr in | rain 24hr in | rain mn in | humidity % | barometer mb |
| 20260502130446 | 49 | 213 | 0.9 | 1.7 | 0.00 | 0.00 | 0.00 | 46 | 1020.3 |
| 20260502123429 | 46 | 213 | 1.7 | 1.7 | 0.00 | 0.00 | 0.00 | 48 | 1020.2 |
| 20260502122926 | 45 | 227 | 1.7 | 1.7 | 0.00 | 0.00 | 0.00 | 48 | 1020.2 |
| 20260502122422 | 45 | 227 | 1.7 | 1.7 | 0.00 | 0.00 | 0.00 | 49 | 1020.3 |
| 20260502121920 | 45 | 222 | 0.0 | 0.9 | 0.00 | 0.00 | 0.00 | 51 | 1020.1 |
| 20260502121417 | 45 | 222 | 0.0 | 0.0 | 0.00 | 0.00 | 0.00 | 51 | 1020.4 |
| 20260502120915 | 46 | 223 | 0.9 | 0.9 | 0.00 | 0.00 | 0.00 | 48 | 1020.2 |
| 20260502120410 | 46 | 227 | 0.9 | 0.9 | 0.00 | 0.00 | 0.00 | 48 | 1020.2 |
| 20260502115908 | 46 | 223 | 0.9 | 0.9 | 0.00 | 0.00 | 0.00 | 48 | 1020.2 |
| 20260502115405 | 46 | 226 | 0.9 | 0.9 | 0.00 | 0.00 | 0.00 | 48 | 1020.3 |
| 20260502114901 | 46 | 226 | 1.7 | 2.6 | 0.00 | 0.00 | 0.00 | 48 | 1020.1 |
| 20260502114358 | 46 | 228 | 2.6 | 2.6 | 0.00 | 0.00 | 0.00 | 49 | 1020.1 |
| 20260502113855 | 46 | 228 | 1.7 | 1.7 | 0.00 | 0.00 | 0.00 | 50 | 1020.1 |
| 20260502113352 | 47 | 214 | 0.9 | 0.9 | 0.00 | 0.00 | 0.00 | 51 | 1020.3 |
| 20260502112851 | 47 | 203 | 1.7 | 1.7 | 0.00 | 0.00 | 0.00 | 51 | 1019.9 |
| 20260502112348 | 47 | 191 | 1.7 | 1.7 | 0.00 | 0.00 | 0.00 | 50 | 1020.1 |
| 20260502111845 | 47 | 228 | 0.9 | 0.9 | 0.00 | 0.00 | 0.00 | 53 | 1020.3 |
| 20260502111342 | 47 | 219 | 1.7 | 1.7 | 0.00 | 0.00 | 0.00 | 55 | 1020.1 |
| 20260502110840 | 47 | 197 | 0.0 | 0.9 | 0.00 | 0.00 | 0.00 | 58 | 1020.3 |
| 20260502110338 | 47 | 187 | 1.7 | 4.3 | 0.00 | 0.00 | 0.00 | 58 | 1020.3 |
| 20260502105835 | 48 | 186 | 2.6 | 2.6 | 0.00 | 0.00 | 0.00 | 58 | 1020.2 |
| 20260502105332 | 48 | 175 | 0.0 | 0.9 | 0.00 | 0.00 | 0.00 | 59 | 1020.2 |
| 20260502104830 | 48 | 166 | 2.6 | 4.3 | 0.00 | 0.00 | 0.00 | 57 | 1020.3 |
| 20260502104327 | 48 | 164 | 2.6 | 4.3 | 0.00 | 0.00 | 0.00 | 55 | 1020.3 |
| 20260502103824 | 48 | 225 | 0.0 | 0.9 | 0.00 | 0.00 | 0.00 | 55 | 1020.4 |
| 20260502103321 | 48 | 198 | 1.7 | 2.6 | 0.00 | 0.00 | 0.00 | 56 | 1020.2 |
| 20260502102819 | 49 | 207 | 0.9 | 1.7 | 0.00 | 0.00 | 0.00 | 56 | 1020.3 |
| 20260502102315 | 48 | 188 | 1.7 | 2.6 | 0.00 | 0.00 | 0.00 | 54 | 1020.2 |
| 20260502101813 | 48 | 164 | 2.6 | 4.3 | 0.00 | 0.00 | 0.00 | 51 | 1020.3 |
| 20260502101311 | 47 | 228 | 0.9 | 0.9 | 0.00 | 0.00 | 0.00 | 49 | 1020.1 |
| 20260502100809 | 47 | 234 | 0.9 | 0.9 | 0.00 | 0.00 | 0.00 | 48 | 1020.2 |
| 20260502100308 | 47 | 233 | 1.7 | 1.7 | 0.00 | 0.00 | 0.00 | 48 | 1020.1 |
| 20260502091241 | 47 | 236 | 0.9 | 0.9 | 0.00 | 0.00 | 0.00 | 48 | 1019.8 |
| 20260502090738 | 47 | 234 | 0.0 | 0.0 | 0.00 | 0.00 | 0.00 | 48 | 1019.9 |
| 20260502090235 | 48 | 235 | 0.9 | 1.7 | 0.00 | 0.00 | 0.00 | 48 | 1019.8 |
| 20260502071136 | 48 | 244 | 1.7 | 1.7 | 0.00 | 0.00 | 0.00 | 49 | 1020.3 |
| 20260502070634 | 48 | 241 | 1.7 | 1.7 | 0.00 | 0.00 | 0.00 | 51 | 1020.3 |
| 20260502070131 | 48 | 243 | 0.9 | 0.9 | 0.00 | 0.00 | 0.00 | 50 | 1020.3 |
| 20260502065630 | 48 | 243 | 0.9 | 0.9 | 0.00 | 0.00 | 0.00 | 49 | 1020.3 |
| 20260502065127 | 48 | 244 | 0.9 | 0.9 | 0.00 | 0.00 | 0.00 | 47 | 1020.4 |
| 20260502064626 | 48 | 237 | 1.7 | 1.7 | 0.00 | 0.00 | 0.00 | 50 | 1019.9 |
| 20260502064122 | 48 | 240 | 2.6 | 2.6 | 0.00 | 0.00 | 0.00 | 53 | 1020.2 |
| 20260502063620 | 48 | 261 | 0.0 | 0.0 | 0.00 | 0.00 | 0.00 | 52 | 1020.2 |
| 20260502063117 | 49 | 261 | 0.0 | 0.0 | 0.00 | 0.00 | 0.00 | 51 | 1020.1 |
| 20260502062614 | 48 | 261 | 0.0 | 0.0 | 0.00 | 0.00 | 0.00 | 51 | 1019.9 |
| 20260502062112 | 48 | 262 | 0.0 | 0.0 | 0.00 | 0.00 | 0.00 | 50 | 1020.3 |
| 20260502061610 | 48 | 261 | 0.0 | 0.0 | 0.00 | 0.00 | 0.00 | 51 | 1020.4 |
| 20260502061108 | 48 | 257 | 0.0 | 0.9 | 0.00 | 0.00 | 0.00 | 53 | 1019.8 |
| 20260502060608 | 49 | 257 | 0.9 | 0.9 | 0.00 | 0.00 | 0.00 | 54 | 1020.1 |
| 20260502060105 | 49 | 256 | 0.0 | 0.0 | 0.00 | 0.00 | 0.00 | 50 | 1019.9 |
| 20260502055602 | 49 | 257 | 0.0 | 0.0 | 0.00 | 0.00 | 0.00 | 47 | 1019.8 |
| 20260502055100 | 50 | 257 | 0.0 | 0.0 | 0.00 | 0.00 | 0.00 | 47 | 1019.8 |
| 20260502054559 | 50 | 244 | 0.0 | 0.0 | 0.00 | 0.00 | 0.00 | 47 | 1020.1 |
| 20260502054055 | 50 | 244 | 0.9 | 0.9 | 0.00 | 0.00 | 0.00 | 47 | 1019.8 |
| 20260502053553 | 51 | 247 | 0.9 | 0.9 | 0.00 | 0.00 | 0.00 | 46 | 1019.7 |
| 20260502053050 | 51 | 267 | 0.0 | 0.0 | 0.00 | 0.00 | 0.00 | 43 | 1019.9 |
| 20260502052549 | 51 | 264 | 1.7 | 1.7 | 0.00 | 0.00 | 0.00 | 43 | 1019.9 |
| 20260502052046 | 51 | 256 | 0.0 | 0.0 | 0.00 | 0.00 | 0.00 | 46 | 1019.6 |
| 20260502051544 | 52 | 255 | 0.0 | 0.0 | 0.00 | 0.00 | 0.00 | 43 | 1019.8 |
| 20260502051042 | 52 | 255 | 0.0 | 0.0 | 0.00 | 0.00 | 0.00 | 41 | 1019.9 |
| 20260502050537 | 52 | 254 | 0.0 | 0.0 | 0.00 | 0.00 | 0.00 | 41 | 1019.8 |
| 20260502050035 | 52 | 254 | 0.0 | 0.0 | 0.00 | 0.00 | 0.00 | 42 | 1019.9 |
| 20260502045531 | 52 | 254 | 0.0 | 0.0 | 0.00 | 0.00 | 0.00 | 42 | 1020.1 |
| 20260502045029 | 52 | 259 | 0.0 | 0.0 | 0.00 | 0.00 | 0.00 | 44 | 1020.1 |
| 20260502044525 | 53 | 261 | 0.0 | 0.0 | 0.00 | 0.00 | 0.00 | 41 | 1019.9 |
| 20260502044022 | 53 | 269 | 0.0 | 0.0 | 0.00 | 0.00 | 0.00 | 38 | 1019.8 |
| 20260502043519 | 54 | 285 | 0.0 | 0.0 | 0.00 | 0.00 | 0.00 | 37 | 1019.7 |
| 20260502043015 | 54 | 289 | 0.9 | 0.9 | 0.00 | 0.00 | 0.00 | 36 | 1019.7 |
| 20260502042510 | 54 | 312 | 2.6 | 2.6 | 0.00 | 0.00 | 0.00 | 36 | 1019.8 |
| 20260502042008 | 54 | 306 | 1.7 | 1.7 | 0.00 | 0.00 | 0.00 | 36 | 1019.8 |
| 20260502041506 | 54 | 302 | 0.9 | 1.7 | 0.00 | 0.00 | 0.00 | 37 | 1019.6 |
| 20260502041003 | 54 | 306 | 0.9 | 0.9 | 0.00 | 0.00 | 0.00 | 36 | 1019.8 |
| 20260502040459 | 55 | 305 | 1.7 | 1.7 | 0.00 | 0.00 | 0.00 | 36 | 1019.7 |
| 20260502035956 | 54 | 313 | 1.7 | 1.7 | 0.00 | 0.00 | 0.00 | 36 | 1019.7 |
| 20260502035451 | 55 | 305 | 0.0 | 0.0 | 0.00 | 0.00 | 0.00 | 36 | 1019.5 |
| 20260502034950 | 55 | 279 | 0.0 | 0.0 | 0.00 | 0.00 | 0.00 | 36 | 1019.5 |
| 20260502034448 | 55 | 274 | 0.0 | 0.0 | 0.00 | 0.00 | 0.00 | 36 | 1019.4 |
| 20260502033946 | 55 | 287 | 0.0 | 0.0 | 0.00 | 0.00 | 0.00 | 36 | 1019.6 |
| 20260502033443 | 55 | 275 | 0.0 | 0.0 | 0.00 | 0.00 | 0.00 | 36 | 1019.4 |
| 20260502032940 | 55 | 283 | 0.0 | 0.9 | 0.00 | 0.00 | 0.00 | 36 | 1019.1 |
| 20260502032436 | 55 | 283 | 0.0 | 0.0 | 0.00 | 0.00 | 0.00 | 35 | 1019.1 |
| 20260502031933 | 55 | 303 | 1.7 | 1.7 | 0.00 | 0.00 | 0.00 | 34 | 1019.2 |
| 20260502031432 | 56 | 320 | 3.5 | 5.2 | 0.00 | 0.00 | 0.00 | 34 | 1019.0 |
| 20260502030930 | 56 | 277 | 2.6 | 2.6 | 0.00 | 0.00 | 0.00 | 34 | 1018.9 |
| 20260502030428 | 56 | 298 | 2.6 | 2.6 | 0.00 | 0.00 | 0.00 | 34 | 1018.9 |
| 20260502025925 | 57 | 290 | 2.6 | 2.6 | 0.00 | 0.00 | 0.00 | 34 | 1018.4 |
| 20260502025422 | 57 | 304 | 1.7 | 1.7 | 0.00 | 0.00 | 0.00 | 34 | 1018.6 |
| 20260502024920 | 57 | 294 | 0.9 | 1.7 | 0.00 | 0.00 | 0.00 | 34 | 1018.6 |
| 20260502024418 | 57 | 327 | 3.5 | 4.3 | 0.00 | 0.00 | 0.00 | 33 | 1018.7 |
| 20260502023916 | 58 | 312 | 0.9 | 1.7 | 0.00 | 0.00 | 0.00 | 33 | 1018.3 |
| 20260502023413 | 58 | 304 | 1.7 | 2.6 | 0.00 | 0.00 | 0.00 | 32 | 1018.6 |
| 20260502022910 | 59 | 319 | 3.5 | 5.2 | 0.00 | 0.00 | 0.00 | 31 | 1018.8 |
| 20260502022407 | 59 | 296 | 0.9 | 0.9 | 0.00 | 0.00 | 0.00 | 31 | 1018.6 |
| 20260502021903 | 59 | 322 | 2.6 | 2.6 | 0.00 | 0.00 | 0.00 | 30 | 1018.6 |
| 20260502021401 | 60 | 301 | 5.2 | 6.1 | 0.00 | 0.00 | 0.00 | 30 | 1018.4 |
| 20260502020858 | 60 | 293 | 2.6 | 2.6 | 0.00 | 0.00 | 0.00 | 30 | 1018.2 |
| 20260502020356 | 60 | 274 | 4.3 | 5.2 | 0.00 | 0.00 | 0.00 | 29 | 1018.2 |
| 20260502015852 | 61 | 297 | 3.5 | 4.3 | 0.00 | 0.00 | 0.00 | 29 | 1018.3 |
| 20260502015350 | 61 | 275 | 5.2 | 6.1 | 0.00 | 0.00 | 0.00 | 28 | 1018.3 |
| 20260502014847 | 61 | 299 | 1.7 | 2.6 | 0.00 | 0.00 | 0.00 | 29 | 1018.3 |
| 20260502014344 | 61 | 315 | 3.5 | 4.3 | 0.00 | 0.00 | 0.00 | 28 | 1018.4 |
| 20260502013840 | 62 | 316 | 2.6 | 4.3 | 0.00 | 0.00 | 0.00 | 28 | 1018.2 |
| 20260502013335 | 62 | 351 | 3.5 | 6.1 | 0.00 | 0.00 | 0.00 | 28 | 1018.4 |
| 20260502012832 | 62 | 331 | 6.1 | 8.7 | 0.00 | 0.00 | 0.00 | 28 | 1018.3 |
| 20260502012330 | 63 | 0 | 3.5 | 5.2 | 0.00 | 0.00 | 0.00 | 28 | 1018.1 |
| 20260502011827 | 62 | 23 | 6.1 | 7.8 | 0.00 | 0.00 | 0.00 | 28 | 1018.1 |
| 20260502011323 | 63 | 354 | 6.1 | 7.0 | 0.00 | 0.00 | 0.00 | 28 | 1018.1 |
| 20260502010821 | 62 | 352 | 4.3 | 6.1 | 0.00 | 0.00 | 0.00 | 28 | 1018.3 |
| 20260502010317 | 62 | 330 | 3.5 | 4.3 | 0.00 | 0.00 | 0.00 | 29 | 1018.1 |
| 20260502005814 | 63 | 14 | 6.1 | 7.8 | 0.00 | 0.00 | 0.00 | 28 | 1018.1 |
| 20260502005312 | 63 | 18 | 1.7 | 5.2 | 0.00 | 0.00 | 0.00 | 28 | 1018.2 |
| 20260502004809 | 63 | 329 | 4.3 | 6.1 | 0.00 | 0.00 | 0.00 | 28 | 1018.1 |
| 20260502004305 | 64 | 323 | 3.5 | 4.3 | 0.00 | 0.00 | 0.00 | 28 | 1018.2 |
| 20260502003803 | 63 | 328 | 3.5 | 5.2 | 0.00 | 0.00 | 0.00 | 28 | 1018.1 |
| 20260502003259 | 63 | 351 | 4.3 | 6.1 | 0.00 | 0.00 | 0.00 | 28 | 1018.2 |
| 20260502002755 | 63 | 42 | 6.1 | 7.8 | 0.00 | 0.00 | 0.00 | 27 | 1018.0 |
| 20260502002253 | 64 | 341 | 5.2 | 7.0 | 0.00 | 0.00 | 0.00 | 28 | 1017.9 |
| 20260502001750 | 63 | 15 | 6.1 | 7.0 | 0.00 | 0.00 | 0.00 | 27 | 1018.3 |
| 20260502001248 | 63 | 46 | 6.1 | 9.6 | 0.00 | 0.00 | 0.00 | 27 | 1018.1 |
| 20260502000746 | 63 | 353 | 7.0 | 8.7 | 0.00 | 0.00 | 0.00 | 28 | 1018.1 |
| 20260502000244 | 64 | 2 | 3.5 | 4.3 | 0.00 | 0.00 | 0.00 | 27 | 1018.1 |
| 20260501235738 | 63 | 67 | 5.2 | 6.1 | 0.00 | 0.00 | 0.00 | 27 | 1018.4 |
| 20260501235235 | 63 | 354 | 2.6 | 2.6 | 0.00 | 0.00 | 0.00 | 27 | 1018.1 |
| 20260501234731 | 63 | 314 | 7.0 | 8.7 | 0.00 | 0.00 | 0.00 | 27 | 1018.2 |
| 20260501234228 | 64 | 329 | 4.3 | 6.1 | 0.00 | 0.00 | 0.00 | 27 | 1018.3 |
| 20260501233726 | 63 | 281 | 5.2 | 7.0 | 0.00 | 0.00 | 0.00 | 27 | 1018.3 |
| 20260501233224 | 63 | 317 | 1.7 | 2.6 | 0.00 | 0.00 | 0.00 | 27 | 1018.3 |
| 20260501232718 | 64 | 88 | 4.3 | 6.1 | 0.00 | 0.00 | 0.00 | 26 | 1018.1 |
| 20260501232216 | 64 | 318 | 2.6 | 2.6 | 0.00 | 0.00 | 0.00 | 26 | 1018.2 |
| 20260501231714 | 64 | 11 | 5.2 | 7.0 | 0.00 | 0.00 | 0.00 | 26 | 1018.1 |
| 20260501231212 | 64 | 92 | 1.7 | 4.3 | 0.00 | 0.00 | 0.00 | 25 | 1018.3 |
| 20260501230710 | 64 | 27 | 3.5 | 7.0 | 0.00 | 0.00 | 0.00 | 26 | 1018.3 |
| 20260501230208 | 63 | 77 | 4.3 | 5.2 | 0.00 | 0.00 | 0.00 | 25 | 1018.2 |
| 20260501225705 | 64 | 344 | 2.6 | 2.6 | 0.00 | 0.00 | 0.00 | 25 | 1018.2 |
| 20260501225202 | 64 | 20 | 4.3 | 6.1 | 0.00 | 0.00 | 0.00 | 24 | 1018.6 |
| 20260501224658 | 63 | 346 | 1.7 | 2.6 | 0.00 | 0.00 | 0.00 | 25 | 1018.6 |
| 20260501224156 | 63 | 308 | 4.3 | 6.1 | 0.00 | 0.00 | 0.00 | 25 | 1018.4 |
| 20260501223652 | 64 | 18 | 4.3 | 7.0 | 0.00 | 0.00 | 0.00 | 24 | 1018.3 |
| 20260501223149 | 64 | 25 | 4.3 | 7.0 | 0.00 | 0.00 | 0.00 | 24 | 1018.7 |
| 20260501222645 | 64 | 337 | 4.3 | 7.0 | 0.00 | 0.00 | 0.00 | 24 | 1018.7 |
| 20260501222142 | 65 | 337 | 3.5 | 5.2 | 0.00 | 0.00 | 0.00 | 25 | 1018.6 |
| 20260501221638 | 65 | 326 | 7.0 | 8.7 | 0.00 | 0.00 | 0.00 | 24 | 1018.4 |
| 20260501221137 | 63 | 358 | 1.7 | 2.6 | 0.00 | 0.00 | 0.00 | 25 | 1018.6 |
| 20260501220634 | 64 | 258 | 6.1 | 7.0 | 0.00 | 0.00 | 0.00 | 24 | 1018.6 |
| 20260501220130 | 64 | 324 | 3.5 | 5.2 | 0.00 | 0.00 | 0.00 | 25 | 1018.4 |
| 20260501215627 | 64 | 30 | 7.0 | 7.8 | 0.00 | 0.00 | 0.00 | 25 | 1018.9 |
| 20260501215122 | 65 | 98 | 7.0 | 7.8 | 0.00 | 0.00 | 0.00 | 24 | 1018.9 |
| 20260501214618 | 65 | 321 | 3.5 | 7.8 | 0.00 | 0.00 | 0.00 | 25 | 1018.7 |
| 20260501214113 | 64 | 345 | 5.2 | 7.8 | 0.00 | 0.00 | 0.00 | 25 | 1018.8 |
| 20260501213611 | 64 | 331 | 6.1 | 6.1 | 0.00 | 0.00 | 0.00 | 26 | 1018.9 |
| 20260501213107 | 64 | 275 | 3.5 | 4.3 | 0.00 | 0.00 | 0.00 | 26 | 1019.0 |
| 20260501212603 | 64 | 308 | 6.1 | 7.8 | 0.00 | 0.00 | 0.00 | 26 | 1018.9 |
| 20260501212100 | 64 | 301 | 7.0 | 7.8 | 0.00 | 0.00 | 0.00 | 26 | 1018.9 |
| 20260501211556 | 64 | 2 | 5.2 | 6.1 | 0.00 | 0.00 | 0.00 | 24 | 1018.9 |
| 20260501211055 | 64 | 30 | 1.7 | 2.6 | 0.00 | 0.00 | 0.00 | 26 | 1019.0 |
| 20260501210550 | 64 | 199 | 0.9 | 1.7 | 0.00 | 0.00 | 0.00 | 25 | 1019.1 |
| 20260501210048 | 64 | 60 | 1.7 | 1.7 | 0.00 | 0.00 | 0.00 | 25 | 1019.4 |
| 20260501205544 | 63 | 92 | 3.5 | 4.3 | 0.00 | 0.00 | 0.00 | 26 | 1019.1 |
| 20260501205042 | 63 | 6 | 5.2 | 7.0 | 0.00 | 0.00 | 0.00 | 26 | 1019.0 |
| 20260501204538 | 63 | 288 | 2.6 | 4.3 | 0.00 | 0.00 | 0.00 | 26 | 1019.2 |
| 20260501204034 | 63 | 322 | 2.6 | 4.3 | 0.00 | 0.00 | 0.00 | 25 | 1019.2 |
| 20260501203531 | 62 | 277 | 4.3 | 5.2 | 0.00 | 0.00 | 0.00 | 26 | 1019.2 |
| 20260501203029 | 63 | 359 | 7.8 | 9.6 | 0.00 | 0.00 | 0.00 | 26 | 1018.9 |
| 20260501202525 | 63 | 113 | 1.7 | 2.6 | 0.00 | 0.00 | 0.00 | 25 | 1019.2 |
| 20260501202022 | 62 | 294 | 4.3 | 7.0 | 0.00 | 0.00 | 0.00 | 27 | 1019.0 |
| 20260501201519 | 63 | 274 | 3.5 | 4.3 | 0.00 | 0.00 | 0.00 | 26 | 1019.2 |
| 20260501201015 | 62 | 241 | 0.0 | 0.9 | 0.00 | 0.00 | 0.00 | 26 | 1019.2 |
| 20260501200513 | 62 | 271 | 5.2 | 6.1 | 0.00 | 0.00 | 0.00 | 27 | 1019.1 |
| 20260501200010 | 63 | 292 | 6.1 | 8.7 | 0.00 | 0.00 | 0.00 | 26 | 1019.2 |
| 20260501195507 | 61 | 80 | 2.6 | 2.6 | 0.00 | 0.00 | 0.00 | 26 | 1019.5 |
| 20260501195003 | 62 | 226 | 0.0 | 0.9 | 0.00 | 0.00 | 0.00 | 24 | 1019.5 |
| 20260501194458 | 62 | 293 | 4.3 | 6.1 | 0.00 | 0.00 | 0.00 | 25 | 1019.6 |
| 20260501193954 | 63 | 304 | 0.9 | 1.7 | 0.00 | 0.00 | 0.00 | 26 | 1019.6 |
| 20260501193452 | 61 | 112 | 0.9 | 0.9 | 0.00 | 0.00 | 0.00 | 25 | 1019.5 |
| 20260501192950 | 61 | 53 | 2.6 | 5.2 | 0.00 | 0.00 | 0.00 | 26 | 1019.6 |
| 20260501192447 | 61 | 12 | 6.1 | 7.0 | 0.00 | 0.00 | 0.00 | 26 | 1019.6 |
| 20260501191944 | 63 | 276 | 7.0 | 7.8 | 0.00 | 0.00 | 0.00 | 25 | 1019.7 |
| 20260501191441 | 63 | 154 | 3.5 | 4.3 | 0.00 | 0.00 | 0.00 | 23 | 1019.6 |
| 20260501190938 | 61 | 21 | 4.3 | 7.8 | 0.00 | 0.00 | 0.00 | 25 | 1019.8 |
| 20260501190434 | 61 | 253 | 2.6 | 2.6 | 0.00 | 0.00 | 0.00 | 25 | 1019.8 |
| 20260501185929 | 61 | 42 | 7.0 | 7.8 | 0.00 | 0.00 | 0.00 | 25 | 1019.8 |
| 20260501185426 | 62 | 1 | 8.7 | 9.6 | 0.00 | 0.00 | 0.00 | 26 | 1019.8 |
| 20260501184921 | 61 | 312 | 4.3 | 7.0 | 0.00 | 0.00 | 0.00 | 27 | 1019.8 |
| 20260501184418 | 62 | 358 | 5.2 | 7.0 | 0.00 | 0.00 | 0.00 | 27 | 1019.9 |
| 20260501183913 | 60 | 6 | 6.1 | 7.8 | 0.00 | 0.00 | 0.00 | 28 | 1020.2 |
| 20260501183411 | 60 | 314 | 3.5 | 4.3 | 0.00 | 0.00 | 0.00 | 28 | 1019.9 |
| 20260501182907 | 60 | 319 | 0.9 | 1.7 | 0.00 | 0.00 | 0.00 | 26 | 1020.1 |
| 20260501182404 | 60 | 37 | 2.6 | 4.3 | 0.00 | 0.00 | 0.00 | 26 | 1019.9 |
| 20260501181900 | 61 | 109 | 6.1 | 7.8 | 0.00 | 0.00 | 0.00 | 26 | 1020.2 |
| 20260501181357 | 59 | 85 | 4.3 | 7.8 | 0.00 | 0.00 | 0.00 | 26 | 1020.4 |
| 20260501180855 | 61 | 291 | 1.7 | 2.6 | 0.00 | 0.00 | 0.00 | 24 | 1020.2 |
| 20260501180351 | 61 | 93 | 3.5 | 6.1 | 0.00 | 0.00 | 0.00 | 27 | 1019.9 |
| 20260501175848 | 60 | 17 | 5.2 | 7.0 | 0.00 | 0.00 | 0.00 | 27 | 1020.3 |
| 20260501175345 | 60 | 345 | 2.6 | 2.6 | 0.00 | 0.00 | 0.00 | 27 | 1020.4 |
| 20260501174842 | 58 | 335 | 0.9 | 1.7 | 0.00 | 0.00 | 0.00 | 29 | 1020.4 |
| 20260501174339 | 58 | 253 | 3.5 | 4.3 | 0.00 | 0.00 | 0.00 | 31 | 1020.5 |
| 20260501173837 | 58 | 340 | 4.3 | 6.1 | 0.00 | 0.00 | 0.00 | 31 | 1020.6 |
| 20260501173334 | 58 | 262 | 2.6 | 4.3 | 0.00 | 0.00 | 0.00 | 31 | 1020.5 |
| 20260501172830 | 58 | 36 | 4.3 | 5.2 | 0.00 | 0.00 | 0.00 | 31 | 1020.4 |
| 20260501172325 | 59 | 54 | 0.0 | 0.0 | 0.00 | 0.00 | 0.00 | 30 | 1020.7 |
| 20260501171821 | 58 | 319 | 0.0 | 0.0 | 0.00 | 0.00 | 0.00 | 30 | 1020.5 |
| 20260501171318 | 58 | 265 | 1.7 | 1.7 | 0.00 | 0.00 | 0.00 | 32 | 1020.5 |
| 20260501170814 | 58 | 118 | 1.7 | 1.7 | 0.00 | 0.00 | 0.00 | 31 | 1020.5 |
| 20260501170311 | 57 | 249 | 4.3 | 5.2 | 0.00 | 0.00 | 0.00 | 32 | 1020.5 |
| 20260501165809 | 58 | 94 | 4.3 | 6.1 | 0.00 | 0.00 | 0.00 | 31 | 1020.6 |
| 20260501165307 | 59 | 255 | 0.0 | 0.0 | 0.00 | 0.00 | 0.00 | 30 | 1020.6 |
| 20260501164804 | 57 | 6 | 3.5 | 5.2 | 0.00 | 0.00 | 0.00 | 33 | 1020.7 |
| 20260501164301 | 57 | 55 | 3.5 | 5.2 | 0.00 | 0.00 | 0.00 | 31 | 1020.5 |
| 20260501163756 | 56 | 265 | 1.7 | 1.7 | 0.00 | 0.00 | 0.00 | 32 | 1020.5 |
| 20260501163254 | 56 | 350 | 2.6 | 2.6 | 0.00 | 0.00 | 0.00 | 33 | 1020.6 |
| 20260501162750 | 56 | 31 | 1.7 | 1.7 | 0.00 | 0.00 | 0.00 | 33 | 1020.6 |
| 20260501162247 | 56 | 100 | 1.7 | 1.7 | 0.00 | 0.00 | 0.00 | 32 | 1020.6 |
| 20260501161738 | 55 | 274 | 0.0 | 0.0 | 0.00 | 0.00 | 0.00 | 34 | 1020.5 |
| 20260501161235 | 55 | 269 | 2.6 | 2.6 | 0.00 | 0.00 | 0.00 | 36 | 1020.4 |
| 20260501160731 | 57 | 284 | 0.9 | 1.7 | 0.00 | 0.00 | 0.00 | 36 | 1020.4 |
| 20260501160229 | 56 | 118 | 0.0 | 0.0 | 0.00 | 0.00 | 0.00 | 35 | 1020.4 |
| 20260501155726 | 57 | 341 | 2.6 | 2.6 | 0.00 | 0.00 | 0.00 | 35 | 1020.3 |
| 20260501155223 | 56 | 126 | 0.9 | 0.9 | 0.00 | 0.00 | 0.00 | 37 | 1020.6 |
| 20260501154719 | 56 | 89 | 2.6 | 4.3 | 0.00 | 0.00 | 0.00 | 38 | 1020.2 |
| 20260501154217 | 54 | 144 | 2.6 | 2.6 | 0.00 | 0.00 | 0.00 | 40 | 1020.1 |
| 20260501153714 | 55 | 66 | 2.6 | 2.6 | 0.00 | 0.00 | 0.00 | 40 | 1020.2 |
| 20260501153211 | 58 | 88 | 1.7 | 2.6 | 0.00 | 0.00 | 0.00 | 36 | 1020.3 |
| 20260501152707 | 57 | 213 | 0.0 | 0.0 | 0.00 | 0.00 | 0.00 | 34 | 1020.3 |
| 20260501152205 | 55 | 246 | 0.9 | 0.9 | 0.00 | 0.00 | 0.00 | 37 | 1020.1 |
| 20260501151702 | 55 | 264 | 0.0 | 0.0 | 0.00 | 0.00 | 0.00 | 36 | 1020.2 |
| 20260501151158 | 55 | 271 | 0.9 | 0.9 | 0.00 | 0.00 | 0.00 | 36 | 1020.2 |
| 20260501150654 | 54 | 32 | 1.7 | 1.7 | 0.00 | 0.00 | 0.00 | 37 | 1020.3 |